Weather History for Ramona, CA

Change the Weather History Date:

Saturday, January 19, 2013

  Actual Average Record
Temperature  
Mean Temperature 55 °F 50 °F  
Max Temperature 76 °F 66 °F 82 °F (1975)
Min Temperature 34 °F 35 °F 23 °F (2012)
Degree Days  
Heating Degree Days 10 15  
Month to date heating degree days 366 285  
Since 1 July heating degree days 1168 1173  
Cooling Degree Days 0 0  
Month to date cooling degree days 0 0  
Year to date cooling degree days 0 0  
Growing Degree Days 6 (Base 50)    
Moisture  
Dew Point 18 °F    
Average Humidity 37    
Maximum Humidity 64    
Minimum Humidity 9    
Precipitation  
Precipitation 0.00 in 0.10 in 0.64 in (2010)
Month to date precipitation 0.23 2.30  
Year to date precipitation 0.23 2.30  
Since 1 July precipitation 3.87 7.01  
Snow  
Snow 0.00 in - - ()
Month to date snowfall 0.0  
Year to date snowfall 0.0  
Since 1 July snowfall 0.0  
Snow Depth 0.00 in    
Sea Level Pressure  
Sea Level Pressure 30.11 in    
Wind  
Wind Speed 7 mph (ENE)    
Max Wind Speed 16 mph    
Max Gust Speed 18 mph    
Visibility 10 miles    
Events      
T = Trace of Precipitation, MM = Missing Value Source: NWS Daily Summary

Daily Weather History Graph

Daily Weather History Graph

Search for Another Location

Airport:

Trip Planner

Search our weather history database for the weather conditions in past years. The results will help you decide how hot, cold, wet, or windy it might be!

Date:

Astronomy

Jan. 19, 2013 Rise Set
Actual Time 6:49 AM PST 5:07 PM PST
Civil Twilight 6:22 AM PST 5:34 PM PST
Nautical Twilight 5:52 AM PST 6:04 PM PST
Astronomical Twilight 5:23 AM PST 6:34 PM PST
Moon 11:33 AM PST (1/19) 12:32 AM PST (1/19)
Length of Visible Light 11h 11m
Length of Day
10h 18m
First Quarter, 58% of the Moon is Illuminated
Jan 19
First Quarter
Jan 26
Full
Feb 3
Last Quarter
Feb 9
New
Feb 17
First Quarter

Hourly Weather History & Observations

Time (PST) Temp. Windchill Dew Point Humidity Pressure Visibility Wind Dir Wind Speed Gust Speed Precip Events Conditions
12:53 AM 53.1 °F - 19.0 °F 26% 30.07 in 10.0 mi NNE 8.1 mph - N/A   Clear
1:53 AM 45.0 °F 42.6 °F 21.0 °F 39% 30.09 in 10.0 mi ENE 4.6 mph - N/A   Clear
2:53 AM 41.0 °F 38.0 °F 21.9 °F 47% 30.09 in 10.0 mi NE 4.6 mph - N/A   Clear
3:53 AM 44.1 °F 41.5 °F 21.9 °F 42% 30.09 in 10.0 mi East 4.6 mph - N/A   Clear
4:53 AM 36.0 °F 32.1 °F 24.1 °F 62% 30.11 in 10.0 mi ENE 4.6 mph - N/A   Clear
5:53 AM 36.0 °F 32.1 °F 23.0 °F 59% 30.12 in 10.0 mi ENE 4.6 mph - N/A   Clear
6:53 AM 36.0 °F 33.3 °F 23.0 °F 59% 30.14 in 10.0 mi East 3.5 mph - N/A   Clear
7:53 AM 46.0 °F 44.8 °F 28.0 °F 50% 30.15 in 10.0 mi East 3.5 mph - N/A   Clear
8:53 AM 64.9 °F - 21.9 °F 19% 30.16 in 10.0 mi ESE 3.5 mph - N/A   Clear
9:53 AM 70.0 °F - 17.1 °F 13% 30.17 in 10.0 mi East 5.8 mph - N/A   Clear
10:53 AM 75.0 °F - 16.0 °F 11% 30.14 in 10.0 mi East 13.8 mph - N/A   Clear
11:53 AM 75.0 °F - 12.9 °F 9% 30.11 in 10.0 mi East 9.2 mph - N/A   Clear
12:53 PM 75.9 °F - 12.9 °F 9% 30.08 in 10.0 mi East 12.7 mph - N/A   Clear
1:53 PM 75.9 °F - 12.9 °F 9% 30.08 in 10.0 mi ENE 8.1 mph - N/A   Clear
2:53 PM 75.0 °F - 14.0 °F 10% 30.07 in 10.0 mi ENE 9.2 mph - N/A   Clear
3:53 PM 73.0 °F - 15.1 °F 11% 30.07 in 10.0 mi East 11.5 mph - N/A   Clear
4:53 PM 66.9 °F - 14.0 °F 13% 30.09 in 10.0 mi East 11.5 mph - N/A   Clear
5:53 PM 61.0 °F - 14.0 °F 16% 30.11 in 10.0 mi NNE 5.8 mph - N/A   Clear
6:53 PM 60.1 °F - 12.9 °F 16% 30.13 in 10.0 mi NE 6.9 mph - N/A   Clear
7:53 PM 61.0 °F - 12.9 °F 15% 30.13 in 10.0 mi ENE 11.5 mph - N/A   Clear
8:53 PM 57.0 °F - 14.0 °F 18% 30.12 in 10.0 mi NNE 4.6 mph - N/A   Clear
9:53 PM 54.0 °F - 15.1 °F 22% 30.12 in 10.0 mi NNE 8.1 mph - N/A   Clear
10:53 PM 43.0 °F 41.3 °F 19.0 °F 38% 30.14 in 10.0 mi NE 3.5 mph - N/A   Clear
11:53 PM 39.9 °F 37.8 °F 21.0 °F 47% 30.13 in 10.0 mi SE 3.5 mph - N/A   Clear